{"data":{"norad_id":67798,"epoch":"2026-09-19T18:53:59.768448Z","epoch_age_seconds":127971,"freshness":"FRESH","line1":"1 67798U 26032B   26262.78749732  .00014291  00000+0  44394-3 0  9998","line2":"2 67798  97.2882  89.1681 0000735 115.3364 244.7955 15.33461708 34704","mean_motion":15.33461708,"eccentricity":7.35e-5,"inclination_deg":97.2882,"raan_deg":89.1681,"arg_perigee_deg":115.3364,"mean_anomaly_deg":244.7955,"bstar":0.00044394,"rev_number":3470,"period_min":93.905181491496,"perigee_km":464.99045683749,"apogee_km":465.99647051565,"semimajor_km":6843.6304636766,"source":"CELESTRAK","updated_at":"2026-09-20T09:00:43.661760Z"}}